2023/02/15 00:00:00,111.7,-5.1
2023/02/15 00:10:00,111.7,-5.1
2023/02/15 00:20:00,111.6,-5.2
2023/02/15 00:30:00,111.0,-5.3
2023/02/15 00:40:00,111.0,-5.5
2023/02/15 00:50:00,111.0,-5.3
2023/02/15 01:00:00,111.3,-5.6
2023/02/15 01:10:00,111.3,-5.4
2023/02/15 01:20:00,111.2,-5.6
2023/02/15 01:30:00,110.9,-5.4
2023/02/15 01:40:00,111.0,-5.5
2023/02/15 01:50:00,111.2,-5.6
2023/02/15 02:00:00,111.3,-5.4
2023/02/15 02:10:00,111.7,-5.6
2023/02/15 02:20:00,111.8,-5.6
2023/02/15 02:30:00,111.8,-5.5
2023/02/15 02:40:00,111.7,-5.8
2023/02/15 02:50:00,111.7,-5.7
2023/02/15 03:00:00,111.9,-6.0
2023/02/15 03:10:00,112.0,-5.7
2023/02/15 03:20:00,112.2,-5.7
2023/02/15 03:30:00,111.8,-5.9
2023/02/15 03:40:00,111.8,-5.6
2023/02/15 03:50:00,112.1,-5.8
2023/02/15 04:00:00,112.2,-5.7
2023/02/15 04:10:00,111.9,-5.7
2023/02/15 04:20:00,111.8,-6.0
2023/02/15 04:30:00,111.6,-5.8
2023/02/15 04:40:00,111.6,-5.7
2023/02/15 04:50:00,111.7,-5.6
2023/02/15 05:00:00,112.0,-5.6
2023/02/15 05:10:00,112.1,-5.6
2023/02/15 05:20:00,112.1,-5.7
2023/02/15 05:30:00,112.3,-5.8
2023/02/15 05:40:00,112.5,-5.8
2023/02/15 05:50:00,112.5,-6.0
2023/02/15 06:00:00,112.4,-5.6
2023/02/15 06:10:00,112.4,-5.8
2023/02/15 06:20:00,112.5,-6.2
2023/02/15 06:30:00,112.8,-5.8
2023/02/15 06:40:00,112.8,-5.7
2023/02/15 06:50:00,111.9,-5.6
2023/02/15 07:00:00,112.7,-5.5
2023/02/15 07:10:00,114.2,-5.8
2023/02/15 07:20:00,114.5,-5.6
2023/02/15 07:30:00,114.8,-5.5
2023/02/15 07:40:00,114.7,-5.2
2023/02/15 07:50:00,115.1,-5.4
2023/02/15 08:00:00,114.7,-5.1
2023/02/15 08:10:00,114.6,-5.0
2023/02/15 08:20:00,114.5,-5.0
2023/02/15 08:30:00,114.6,-4.9
2023/02/15 08:40:00,114.3,-4.6
2023/02/15 08:50:00,114.2,-4.4
2023/02/15 09:00:00,114.2,-4.4
2023/02/15 09:10:00,114.1,-4.4
2023/02/15 09:20:00,114.0,-4.0
2023/02/15 09:30:00,113.7,-4.1
2023/02/15 09:40:00,113.8,-4.0
2023/02/15 09:50:00,114.3,-4.3
2023/02/15 10:00:00,114.6,-3.9
2023/02/15 10:10:00,115.0,-4.0
2023/02/15 10:20:00,115.4,-3.4
2023/02/15 10:30:00,115.6,-3.5
2023/02/15 10:40:00,116.4,-3.9
2023/02/15 10:50:00,117.2,-3.7
2023/02/15 11:00:00,117.8,-3.9
2023/02/15 11:10:00,118.3,-4.0
2023/02/15 11:20:00,118.7,-3.5
2023/02/15 11:30:00,118.8,-3.8
2023/02/15 11:40:00,118.7,-3.7
2023/02/15 11:50:00,118.4,-2.9
2023/02/15 12:00:00,118.5,-3.2
2023/02/15 12:10:00,118.6,-2.9
2023/02/15 12:20:00,118.3,-3.3
2023/02/15 12:30:00,118.5,-3.4
2023/02/15 12:40:00,118.6,-2.5
2023/02/15 12:50:00,119.4,-2.9
2023/02/15 13:00:00,119.3,-3.5
2023/02/15 13:10:00,119.5,-3.5
2023/02/15 13:20:00,119.5,-3.0
2023/02/15 13:30:00,119.4,-3.1
2023/02/15 13:40:00,119.6,-3.4
2023/02/15 13:50:00,119.8,-3.3
2023/02/15 14:00:00,119.9,-3.3
2023/02/15 14:10:00,119.2,-3.1
2023/02/15 14:20:00,119.4,-3.5
2023/02/15 14:30:00,119.2,-3.5
2023/02/15 14:40:00,119.4,-3.6
2023/02/15 14:50:00,119.4,-3.8
2023/02/15 15:00:00,119.5,-3.6
2023/02/15 15:10:00,118.9,-3.5
2023/02/15 15:20:00,119.0,-3.4
2023/02/15 15:30:00,119.2,-3.7
2023/02/15 15:40:00,119.5,-3.7
2023/02/15 15:50:00,119.5,-3.7
2023/02/15 16:00:00,119.9,-4.0
2023/02/15 16:10:00,120.9,-4.1
2023/02/15 16:20:00,120.8,-4.2
2023/02/15 16:30:00,121.0,-4.2
2023/02/15 16:40:00,121.2,-4.5
2023/02/15 16:50:00,121.6,-4.4
2023/02/15 17:00:00,121.9,-4.9
2023/02/15 17:10:00,121.6,-4.8
2023/02/15 17:20:00,121.4,-4.6
2023/02/15 17:30:00,121.3,-4.9
2023/02/15 17:40:00,120.8,-4.8
2023/02/15 17:50:00,120.7,-4.9
2023/02/15 18:00:00,121.5,-4.9
2023/02/15 18:10:00,121.5,-4.8
2023/02/15 18:20:00,122.0,-4.9
2023/02/15 18:30:00,122.0,-4.9
2023/02/15 18:40:00,121.2,-5.0
2023/02/15 18:50:00,121.1,-5.1
2023/02/15 19:00:00,120.8,-5.1
2023/02/15 19:10:00,121.0,-5.0
2023/02/15 19:20:00,121.3,-4.8
2023/02/15 19:30:00,121.6,-5.1
2023/02/15 19:40:00,121.3,-5.4
2023/02/15 19:50:00,120.9,-5.2
2023/02/15 20:00:00,121.2,-5.1
2023/02/15 20:10:00,121.0,-5.0
2023/02/15 20:20:00,120.4,-5.1
2023/02/15 20:30:00,120.4,-5.1
2023/02/15 20:40:00,120.5,-5.0
2023/02/15 20:50:00,120.9,-4.9
2023/02/15 21:00:00,120.7,-4.9
2023/02/15 21:10:00,120.6,-4.9
2023/02/15 21:20:00,121.0,-5.0
2023/02/15 21:30:00,121.0,-5.1
2023/02/15 21:40:00,120.9,-5.2
2023/02/15 21:50:00,120.6,-4.9
2023/02/15 22:00:00,120.4,-5.0
2023/02/15 22:10:00,120.7,-4.9
2023/02/15 22:20:00,120.2,-4.8
2023/02/15 22:30:00,120.4,-4.6
2023/02/15 22:40:00,120.7,-4.7
2023/02/15 22:50:00,119.9,-4.8
2023/02/15 23:00:00,119.7,-4.7
2023/02/15 23:10:00,120.1,-4.9
2023/02/15 23:20:00,120.3,-4.8
2023/02/15 23:30:00,120.4,-4.8
2023/02/15 23:40:00,120.4,-4.9
2023/02/15 23:50:00,120.4,-4.8
